Wetbulb
55.65 54.81 54.35 55.61 57.15 57.42 58.50 59.17 58.90 56.90 56.59 58.27 59.20 59.22 59.37 59.39 60.08 58.41 56.08 59.90 61.37 64.21 62.25 60.30 58.45 58.59 60.87 57.07 57.20 56.84 52.27 49.56 51.72 52.67 54.58 57.70 56.33 59.54 60.74 58.72 59.12 60.83 60.91 64.25 67.52
55.44 55.47 54.86 54.44 55.60 56.93 57.50 58.77 59.49 57.73 57.67 57.96 58.27 58.91 58.91 58.85 56.83 54.48 60.07 62.37 63.22 64.12 58.96 56.23 53.04 56.08 56.86 54.93 55.47 53.67 52.16 51.88 55.39 56.39 56.12 56.83 57.23 57.93 57.47 56.73 57.33 58.71 62.38 65.94 67.00
54.41 54.85 55.18 54.98 54.44 55.95 57.00 58.14 59.89 58.32 56.53 58.10 58.30 57.79 57.43 58.45 53.32 53.48 60.41 61.79 61.71 62.82 58.95 57.37 55.56 53.80 53.33 54.16 52.96 53.12 52.15 54.00 54.22 55.94 57.75 56.92 57.05 59.34 57.54 54.87 57.54 57.82 60.49 64.41 65.36
53.15 54.04 54.63 55.19 54.73 54.78 56.16 56.91 59.09 58.91 56.72 56.76 57.38 57.13 57.39 57.02 43.42 53.89 58.96 61.07 62.70 61.63 57.74 55.79 53.11 49.86 48.41 50.45 52.15 50.23 52.75 53.64 53.54 54.35 56.78 55.99 58.31 56.89 58.15 57.83 60.45 61.01 62.95 64.62 64.18
52.08 52.84 53.65 54.52 55.30 54.41 55.18 56.00 57.89 58.29 58.13 56.17 56.92 57.04 56.23 50.81 50.89 56.67 58.57 59.32 59.19 57.68 55.21 52.62 50.43 49.38 45.59 49.11 51.47 50.34 51.68 53.42 53.79 53.88 56.50 57.63 56.62 57.15 57.79 58.88 60.91 62.46 62.90 63.66 64.07
51.33 51.76 52.92 53.79 54.79 54.79 54.50 55.54 57.37 58.71 58.40 57.63 56.77 56.89 53.42 44.64 54.76 56.53 56.97 57.29 57.42 55.69 54.80 54.17 51.25 51.60 48.04 47.53 48.74 50.52 51.88 52.66 53.67 53.56 53.92 54.79 55.45 56.28 58.69 59.71 59.91 61.37 61.59 63.06 63.49
51.35 51.43 52.31 53.06 54.23 54.94 54.10 55.08 56.66 58.11 58.46 58.85 57.49 55.26 50.04 49.02 56.06 57.05 57.23 55.98 56.99 55.96 53.75 55.75 54.92 51.16 49.99 46.01 50.18 50.01 48.04 52.02 52.72 52.79 52.23 55.81 51.66 53.42 58.42 58.83 59.53 60.56 61.52 62.22 63.01
53.05 52.35 51.89 52.73 53.95 54.88 53.91 54.81 56.22 57.40 58.22 58.47 57.80 53.90 45.61 54.45 57.31 56.19 56.79 55.75 57.37 58.26 56.58 57.85 56.95 52.00 49.66 48.84 47.75 46.18 47.03 44.26 50.54 52.13 51.68 52.48 49.93 55.52 56.61 57.55 58.09 59.87 61.08 61.29 62.27
52.68 52.73 52.09 52.79 54.01 54.81 53.80 54.66 55.84 56.70 58.17 58.04 54.20 50.69 42.62 53.49 49.08 55.36 57.12 53.81 55.73 56.58 56.91 56.09 54.89 49.69 48.08 44.59 41.68 43.27 41.73 44.27 44.39 50.12 50.66 51.57 51.13 55.03 55.16 56.65 57.37 58.92 60.14 60.79 61.42
53.06 52.97 52.48 53.46 54.35 54.19 53.31 54.36 55.47 55.91 55.29 52.71 51.27 43.38 46.48 43.75 48.79 51.71 56.76 57.07 54.11 52.84 51.87 52.26 50.36 45.45 45.28 43.36 34.96 38.13 38.61 40.97 43.46 44.88 48.12 49.15 50.28 50.47 52.40 54.28 56.45 57.99 59.17 59.88 60.30
52.90 52.47 53.05 53.91 54.27 53.01 52.60 53.33 48.69 46.25 48.66 44.90 44.59 45.35 45.49 49.90 52.02 49.66 55.14 55.05 53.67 50.90 44.30 48.67 43.53 40.33 44.38 45.39 45.48 42.56 41.64 40.31 42.92 44.44 43.28 46.21 47.69 51.10 51.23 51.61 53.27 55.44 56.70 57.94 59.12
52.23 52.35 53.33 53.53 52.89 52.30 52.96 47.50 48.21 50.03 42.87 47.91 47.36 47.12 48.49 49.49 43.22 47.85 54.82 48.75 48.36 43.27 46.93 44.89 40.42 45.85 47.98 46.33 43.86 43.33 41.43 40.99 42.18 42.27 42.22 43.84 43.64 47.40 49.92 51.19 52.18 53.35 54.33 55.21 56.44
51.58 52.47 53.08 53.08 52.59 51.83 49.86 49.00 53.97 52.03 41.44 43.56 45.36 45.43 45.97 47.40 42.77 44.86 51.73 48.34 44.84 42.56 43.13 42.58 43.52 46.71 46.45 43.61 41.68 42.48 41.56 41.97 40.16 40.33 41.63 41.61 41.63 44.61 47.99 49.06 50.07 50.72 51.87 52.85 53.40
51.53 52.70 53.08 53.44 49.08 50.56 47.71 52.25 53.43 52.64 34.65 36.77 40.88 44.35 46.59 47.07 41.69 49.26 52.53 47.58 44.80 41.04 42.80 42.12 43.43 43.46 43.46 42.36 43.45 37.99 42.20 41.27 38.63 38.92 36.02 41.41 35.38 44.74 47.75 47.33 47.51 48.37 49.82 51.00 52.17
51.54 52.45 52.86 52.53 49.35 46.74 49.77 53.02 52.35 49.09 26.02 38.69 40.87 49.87 47.18 42.73 43.49 44.77 51.02 46.37 40.85 41.23 41.91 38.77 40.11 41.10 41.18 42.63 44.89 40.95 43.23 41.00 40.21 38.49 38.10 38.26 35.59 41.15 45.98 43.48 45.40 47.47 48.68 49.27 50.00
52.29 52.59 51.82 50.31 51.26 50.67 52.19 51.46 47.23 33.52 24.53 33.53 39.67 41.00 40.27 41.50 41.90 45.69 44.98 48.01 46.65 40.59 40.08 38.82 43.35 42.68 41.94 43.30 44.45 44.04 41.57 40.95 40.55 37.74 30.11 36.86 36.61 38.26 41.79 41.66 43.84 45.46 44.49 45.61 46.82
51.73 50.58 50.72 50.20 45.48 51.02 50.01 47.11 30.24 27.97 34.20 31.84 33.88 38.98 37.40 37.34 39.50 40.69 38.99 38.59 36.34 32.02 31.62 37.27 37.96 41.54 43.08 39.86 42.98 42.28 38.49 30.56 28.66 28.71 28.72 35.39 35.52 38.61 42.16 43.04 43.22 43.45 44.39 45.51 47.65
50.57 49.90 48.56 47.50 49.11 50.00 46.91 37.73 24.66 29.68 30.63 35.12 34.21 36.13 34.56 35.85 37.78 39.14 37.23 34.84 39.89 37.74 34.05 30.62 27.89 37.78 41.91 39.61 37.71 38.49 37.58 32.20 24.08 26.37 30.55 32.90 29.29 36.32 42.49 44.41 45.00 45.10 45.36 46.49 47.67
51.31 49.66 47.02 46.49 48.24 49.11 41.55 30.01 28.41 29.65 31.68 32.22 33.56 32.87 31.70 33.26 36.12 37.20 36.52 35.55 38.44 40.04 33.60 32.02 32.33 40.73 41.30 42.29 41.24 36.81 33.73 37.77 30.47 27.66 28.81 32.68 35.73 40.56 43.13 42.60 43.89 44.52 45.06 46.09 47.33
47.72 45.75 44.34 45.98 46.98 46.09 33.69 27.98 30.58 34.14 33.80 34.61 29.75 32.69 28.99 31.04 33.43 35.24 34.25 33.01 37.08 40.94 41.77 38.15 31.07 38.79 40.21 42.52 42.44 39.23 40.38 30.02 33.25 24.60 23.05 29.67 31.59 33.08 37.81 40.02 42.29 43.09 44.53 45.84 46.86
46.93 39.03 45.81 45.53 47.11 39.05 31.05 29.05 31.33 35.44 35.97 33.60 31.55 30.71 31.48 30.88 32.35 31.56 31.28 33.62 35.91 38.55 42.08 39.76 36.57 34.25 39.16 36.13 34.99 36.28 34.58 35.72 35.16 32.91 27.02 25.97 31.69 39.90 40.08 41.43 41.86 43.33 44.75 45.76 46.74
44.20 32.19 46.09 45.61 34.06 32.80 30.76 30.10 33.58 33.53 36.85 34.82 35.08 34.12 32.36 32.62 31.04 31.21 30.79 34.45 37.74 38.17 36.64 36.91 36.95 31.46 33.57 39.47 41.54 39.69 36.52 36.38 29.89 27.92 30.96 30.02 31.23 41.82 41.98 42.36 43.72 43.45 44.46 45.76 46.58
38.46 39.58 45.05 42.76 30.66 28.76 30.50 30.64 33.52 33.18 33.37 33.70 32.54 34.23 34.96 31.51 29.09 31.77 33.03 36.52 37.70 37.41 36.24 37.86 34.32 29.60 30.88 35.24 38.35 36.84 38.44 38.61 37.31 35.75 30.76 27.46 31.98 40.91 41.85 42.77 44.07 42.76 44.19 45.98 45.92
41.21 31.62 34.96 37.12 35.52 32.84 30.91 29.03 29.71 35.17 33.23 34.85 33.63 35.29 33.45 30.77 33.67 30.77 31.18 35.21 37.67 37.14 37.35 38.96 34.06 31.13 28.52 30.31 35.17 33.53 36.65 38.25 36.98 32.00 31.77 33.02 35.11 39.20 41.71 42.70 44.50 45.74 46.92 47.59 47.94
40.10 29.70 29.77 31.02 31.94 31.37 31.95 30.04 28.37 28.57 33.79 34.46 32.32 32.24 30.74 28.10 29.59 29.78 32.03 33.29 35.80 36.58 36.90 36.80 31.18 32.61 32.40 33.33 33.75 34.14 35.52 37.03 35.11 36.28 32.20 35.46 36.22 40.03 42.66 43.46 44.74 45.75 46.26 45.99 46.19
37.47 33.53 33.65 29.91 30.72 32.24 31.75 28.27 27.97 28.66 30.76 29.68 29.63 31.60 32.25 28.32 29.69 27.95 30.41 30.54 31.01 34.79 33.78 35.36 30.92 32.76 29.44 32.50 32.93 30.85 34.42 35.73 36.65 37.19 36.66 37.58 37.21 43.60 44.48 45.05 43.49 43.51 44.16 44.03 45.04
38.41 37.86 39.16 30.20 31.75 32.57 29.78 29.24 29.03 30.90 31.46 33.19 31.70 30.75 29.20 30.03 33.44 34.50 35.20 34.81 34.55 32.45 30.78 31.82 30.50 29.02 26.36 31.23 30.72 26.95 31.15 33.25 35.85 37.90 37.34 33.50 38.59 42.48 41.04 41.07 40.93 41.66 42.45 42.41 41.69
MSLP
1016.75 1016.68 1016.65 1016.53 1016.44 1016.24 1016.16 1016.08 1016.34 1016.73 1016.68 1016.55 1016.53 1016.79 1016.14 1016.26 1015.53 1015.44 1015.42 1015.37 1015.03 1015.02 1014.81 1014.72 1014.73 1013.87 1012.53 1011.62 1011.20 1010.90 1009.61 1008.05 1007.44 1007.35 1007.74 1009.04 1009.43 1010.13 1010.85 1011.21 1011.63 1012.24 1011.89 1012.16 1013.78
1016.71 1016.59 1016.55 1016.57 1016.45 1016.33 1016.10 1015.97 1015.97 1016.47 1016.78 1016.84 1016.38 1016.29 1016.73 1016.76 1016.55 1016.33 1015.96 1015.92 1015.65 1015.65 1015.43 1015.31 1015.30 1014.59 1012.63 1011.48 1011.02 1010.62 1009.63 1008.43 1007.95 1007.87 1008.14 1009.21 1009.42 1010.15 1010.88 1011.19 1011.72 1012.50 1013.29 1013.11 1014.07
1016.79 1016.55 1016.49 1016.42 1016.41 1016.35 1016.13 1015.88 1015.54 1015.97 1016.25 1016.31 1016.05 1016.28 1016.79 1016.90 1016.60 1016.32 1016.17 1015.86 1015.86 1015.74 1015.70 1016.15 1015.76 1015.49 1013.74 1012.02 1011.60 1011.11 1010.06 1009.80 1009.74 1009.70 1009.11 1009.37 1009.64 1010.22 1010.37 1010.88 1010.93 1011.76 1012.95 1013.50 1014.22
1016.85 1016.59 1016.44 1016.41 1016.30 1016.26 1016.13 1015.90 1015.56 1015.76 1016.08 1016.41 1016.59 1016.70 1017.10 1016.65 1017.13 1016.82 1016.51 1016.10 1015.99 1015.97 1016.08 1016.02 1015.98 1015.91 1014.90 1012.87 1012.26 1011.77 1011.40 1011.06 1011.20 1011.03 1009.94 1009.92 1010.12 1010.58 1010.46 1010.48 1010.61 1011.31 1012.65 1013.58 1013.96
1016.71 1016.52 1016.35 1016.27 1016.15 1016.10 1016.00 1015.91 1015.69 1015.73 1015.97 1016.51 1017.00 1017.18 1016.48 1016.77 1016.62 1016.43 1016.57 1016.22 1016.01 1016.37 1016.17 1016.21 1016.48 1016.46 1016.20 1014.74 1013.14 1012.33 1011.99 1011.83 1011.75 1011.53 1010.81 1010.68 1010.65 1010.50 1010.69 1011.24 1011.59 1011.73 1012.68 1013.26 1013.87
1016.37 1016.31 1016.15 1016.10 1016.07 1015.98 1015.91 1015.80 1015.59 1015.40 1015.61 1016.12 1016.64 1016.45 1016.53 1016.45 1016.24 1016.50 1016.69 1016.51 1016.36 1016.62 1016.10 1016.38 1016.78 1016.84 1016.64 1015.96 1014.77 1013.63 1012.77 1012.23 1012.00 1011.89 1012.00 1011.47 1011.34 1011.31 1011.04 1011.73 1011.83 1012.31 1012.56 1013.00 1013.59
1016.11 1016.02 1015.93 1015.88 1015.92 1015.88 1015.79 1015.65 1015.37 1015.24 1015.29 1015.69 1016.22 1016.54 1016.03 1015.08 1015.46 1016.34 1016.78 1017.06 1017.08 1016.66 1016.51 1016.66 1016.70 1017.26 1017.25 1017.23 1016.33 1014.36 1013.02 1012.40 1012.08 1012.28 1012.31 1011.73 1011.82 1011.14 1011.27 1012.00 1011.89 1012.38 1012.52 1012.83 1013.36
1015.86 1015.76 1015.68 1015.64 1015.65 1015.66 1015.65 1015.62 1015.29 1014.93 1015.05 1015.46 1015.98 1015.89 1014.97 1015.16 1015.07 1015.68 1016.46 1016.96 1017.05 1016.88 1016.64 1016.52 1017.00 1017.60 1017.69 1017.74 1016.93 1014.90 1013.60 1012.57 1012.46 1012.57 1012.68 1012.47 1011.10 1011.05 1011.83 1011.96 1011.75 1012.13 1012.12 1012.70 1013.10
1015.60 1015.52 1015.43 1015.33 1015.30 1015.40 1015.46 1015.41 1015.20 1015.06 1015.08 1015.43 1016.18 1015.52 1014.58 1014.91 1015.53 1014.87 1015.43 1016.05 1016.67 1016.60 1016.25 1016.38 1016.71 1017.21 1018.22 1018.08 1017.68 1016.36 1014.41 1013.64 1013.45 1013.41 1012.93 1012.70 1011.32 1011.15 1012.26 1012.07 1011.66 1011.74 1011.98 1012.41 1012.82
1015.23 1015.17 1015.04 1014.97 1014.98 1015.19 1015.38 1015.27 1014.92 1015.13 1015.71 1015.81 1015.90 1015.92 1014.58 1014.54 1014.80 1014.37 1015.08 1015.66 1016.18 1016.15 1016.35 1016.08 1016.21 1016.56 1017.00 1017.07 1017.01 1016.67 1016.09 1015.32 1014.09 1014.09 1013.66 1013.08 1012.32 1012.28 1012.53 1012.29 1011.72 1011.54 1011.73 1012.00 1012.46
1014.89 1014.82 1014.64 1014.58 1014.77 1015.08 1015.32 1015.37 1015.54 1016.00 1015.96 1015.38 1015.10 1014.57 1013.88 1014.51 1014.56 1014.59 1015.03 1015.55 1015.53 1015.81 1016.00 1016.22 1016.00 1015.40 1015.44 1015.72 1015.66 1016.61 1016.50 1016.05 1015.42 1015.30 1014.89 1013.68 1012.88 1011.98 1012.51 1012.52 1012.05 1011.93 1011.84 1011.89 1012.06
1014.61 1014.51 1014.35 1014.53 1014.71 1014.97 1015.06 1014.73 1014.41 1015.02 1015.06 1014.91 1014.81 1014.82 1014.52 1014.22 1014.64 1014.96 1015.27 1015.40 1015.04 1014.83 1015.08 1015.97 1015.49 1015.05 1014.51 1014.90 1015.68 1016.02 1015.75 1016.26 1016.45 1016.33 1016.11 1014.40 1013.36 1012.53 1012.04 1012.08 1012.18 1012.02 1011.83 1011.87 1012.00
1014.45 1014.39 1014.40 1014.60 1014.82 1015.05 1014.61 1014.49 1014.99 1014.76 1014.77 1015.33 1015.08 1014.96 1014.95 1015.15 1014.52 1014.74 1015.34 1014.81 1014.67 1014.37 1014.76 1014.58 1014.54 1014.45 1014.63 1014.89 1015.20 1015.45 1015.57 1015.59 1016.15 1016.80 1016.61 1015.56 1013.46 1012.26 1011.83 1011.97 1012.13 1012.14 1012.06 1011.90 1011.78
1014.41 1014.45 1014.52 1014.67 1015.12 1014.67 1014.66 1015.15 1015.35 1015.17 1015.27 1014.86 1015.21 1015.40 1015.68 1015.27 1015.05 1015.07 1015.05 1015.02 1014.84 1014.37 1015.25 1014.97 1015.17 1014.81 1014.73 1014.50 1014.95 1015.38 1015.89 1016.24 1016.65 1016.81 1016.51 1016.12 1013.48 1011.43 1010.92 1011.09 1011.79 1012.03 1011.93 1011.61 1011.39
1014.35 1014.49 1014.68 1014.79 1014.54 1014.72 1014.94 1015.19 1015.31 1015.52 1015.15 1015.39 1015.16 1015.61 1015.48 1015.30 1015.11 1015.56 1015.57 1015.22 1014.75 1014.65 1015.72 1015.74 1015.66 1015.30 1014.88 1014.55 1014.98 1015.86 1016.09 1016.56 1017.11 1017.60 1017.42 1016.54 1015.21 1012.20 1011.71 1011.41 1011.47 1011.33 1011.16 1011.50 1011.67
1014.43 1014.67 1014.91 1014.94 1014.78 1015.36 1015.36 1015.45 1016.03 1016.37 1015.47 1015.65 1015.66 1015.48 1015.60 1015.64 1015.84 1015.61 1015.51 1015.19 1015.03 1016.03 1016.40 1016.73 1016.56 1016.09 1015.69 1015.87 1015.81 1016.42 1016.65 1017.31 1017.94 1018.41 1017.68 1016.37 1015.31 1012.00 1011.52 1011.23 1011.12 1011.34 1012.04 1012.47 1012.73
1014.86 1015.15 1015.22 1015.27 1015.73 1015.85 1015.94 1015.73 1016.35 1015.70 1016.44 1016.41 1016.28 1015.69 1015.77 1015.97 1015.96 1015.48 1015.31 1015.37 1015.15 1016.04 1016.33 1016.85 1016.89 1016.91 1016.63 1016.48 1016.75 1016.58 1016.71 1017.75 1018.46 1018.54 1017.10 1016.04 1014.70 1012.29 1011.78 1011.49 1011.57 1011.83 1012.28 1012.89 1013.07
1015.24 1015.39 1016.13 1016.47 1016.42 1016.10 1016.18 1015.96 1016.69 1016.90 1016.89 1016.84 1016.64 1016.36 1016.28 1016.32 1016.22 1015.89 1015.80 1015.55 1015.67 1015.27 1015.26 1015.88 1017.05 1016.80 1016.67 1016.14 1016.19 1016.44 1016.20 1016.28 1017.15 1017.24 1016.48 1016.57 1014.42 1012.45 1012.24 1011.85 1011.86 1012.51 1013.08 1013.24 1013.32
1015.24 1015.73 1016.31 1016.75 1016.51 1016.22 1016.23 1016.63 1017.44 1017.71 1017.80 1017.67 1017.15 1016.71 1016.85 1017.04 1016.69 1016.43 1016.32 1015.97 1015.72 1015.37 1015.05 1015.10 1015.87 1016.49 1016.65 1016.66 1016.34 1016.76 1016.49 1016.82 1017.19 1018.13 1017.08 1015.33 1013.83 1012.51 1011.98 1011.69 1012.14 1012.78 1013.06 1013.19 1013.27
1015.16 1015.81 1016.82 1017.07 1016.69 1016.21 1016.61 1017.90 1018.35 1018.41 1018.14 1017.70 1017.39 1017.25 1017.08 1017.00 1016.89 1016.82 1017.01 1017.85 1016.90 1016.38 1016.02 1015.39 1016.19 1017.10 1017.28 1017.11 1016.80 1016.47 1016.38 1017.25 1017.35 1017.25 1016.36 1014.41 1013.50 1012.41 1012.42 1012.25 1012.35 1012.84 1013.03 1013.34 1013.69
1015.38 1016.28 1017.13 1017.14 1016.71 1016.92 1017.68 1018.73 1018.98 1018.76 1018.41 1018.09 1018.03 1017.91 1017.69 1017.54 1017.58 1017.51 1018.21 1018.56 1018.27 1017.59 1016.64 1015.96 1015.84 1017.81 1017.60 1017.05 1016.55 1016.80 1016.43 1016.64 1016.55 1016.71 1015.77 1014.30 1012.70 1012.33 1012.29 1012.46 1012.89 1013.23 1013.73 1013.95 1014.11
1016.25 1017.12 1017.38 1017.08 1017.65 1018.74 1019.01 1019.53 1019.52 1018.98 1018.49 1018.42 1018.18 1018.21 1018.18 1018.13 1018.24 1018.37 1018.70 1019.00 1019.22 1018.63 1017.61 1017.67 1017.19 1017.83 1017.65 1017.76 1017.27 1016.33 1016.17 1016.41 1016.38 1016.90 1016.13 1015.16 1013.54 1013.11 1013.08 1013.42 1013.48 1013.95 1014.19 1014.27 1014.33
1016.97 1017.52 1017.57 1017.45 1018.30 1019.34 1020.09 1019.80 1019.69 1019.16 1018.76 1018.62 1018.75 1018.68 1018.86 1018.98 1019.19 1019.54 1019.70 1019.96 1019.52 1019.07 1018.88 1018.66 1018.61 1018.41 1018.81 1018.64 1017.86 1017.04 1016.46 1016.50 1016.72 1017.01 1015.95 1015.41 1013.91 1013.93 1013.83 1013.78 1014.04 1014.44 1014.60 1014.50 1014.57
1017.09 1018.15 1018.56 1018.71 1019.36 1019.41 1019.71 1019.97 1019.64 1019.45 1019.33 1019.18 1019.18 1018.75 1019.07 1019.43 1019.37 1020.05 1020.08 1020.29 1020.14 1019.80 1019.55 1018.94 1019.06 1018.94 1018.63 1018.11 1017.88 1017.29 1016.82 1016.85 1016.77 1016.56 1015.90 1014.66 1014.10 1013.90 1013.67 1013.90 1014.08 1014.22 1014.40 1014.42 1014.29
1017.81 1019.70 1020.50 1020.33 1020.11 1019.98 1019.79 1020.06 1019.87 1019.76 1019.62 1019.50 1019.37 1019.64 1019.65 1020.01 1020.14 1020.35 1020.66 1020.66 1020.56 1020.44 1020.00 1019.78 1019.91 1019.96 1019.76 1019.23 1018.85 1018.04 1017.20 1016.98 1016.59 1015.92 1016.03 1014.71 1014.05 1013.91 1013.90 1014.22 1014.61 1014.83 1014.65 1014.85 1014.72
1018.22 1019.49 1020.44 1020.73 1020.64 1020.00 1020.19 1020.53 1020.28 1020.44 1020.13 1019.91 1020.01 1020.09 1019.88 1020.50 1020.76 1021.03 1020.98 1020.54 1020.51 1020.80 1020.92 1020.77 1020.62 1020.31 1020.03 1019.69 1019.19 1018.38 1017.71 1017.30 1016.83 1016.43 1015.99 1015.45 1014.53 1014.98 1014.69 1014.55 1014.85 1014.78 1015.10 1015.26 1015.19
1018.94 1019.48 1019.36 1020.86 1020.75 1020.45 1020.76 1020.89 1020.72 1020.62 1021.12 1020.99 1020.75 1020.57 1021.09 1021.67 1021.58 1021.56 1021.41 1021.42 1021.44 1021.57 1021.47 1021.45 1021.08 1020.95 1020.57 1019.95 1019.18 1018.31 1017.04 1017.02 1017.00 1016.52 1016.39 1015.75 1015.16 1015.05 1014.82 1015.55 1015.85 1015.83 1016.04 1016.13 1016.46
Wind_Speed
8 7 8 9 9 10 10 7 9 6 4 6 4 6 13 16 13 4 3 7 7 12 6 4 7 13 14 8 2 2 7 11 14 13 10 15 15 9 4 7 5 7 3 13 19
10 10 8 9 9 9 10 10 11 9 7 8 5 6 8 10 2 2 4 5 8 11 2 3 5 10 11 3 2 6 12 17 8 9 11 18 14 13 8 11 7 8 4 14 19
9 9 10 9 9 9 10 11 9 11 6 4 4 8 4 2 5 4 9 6 9 10 3 2 2 5 7 1 2 0 8 3 3 4 8 17 12 12 9 11 10 13 12 18 17
9 7 8 11 9 10 10 11 7 14 10 7 4 7 6 3 4 1 10 8 6 9 4 2 5 4 6 3 3 5 2 3 1 1 8 16 11 8 11 6 5 9 16 18 19
7 8 7 9 11 10 11 10 8 14 15 12 12 10 4 4 4 1 12 9 5 4 5 2 2 4 2 10 5 2 2 3 3 4 5 7 12 8 11 5 3 8 15 18 16
7 7 8 9 10 11 11 11 11 16 14 15 12 8 5 9 6 5 5 8 3 3 3 2 4 4 3 5 9 5 1 4 3 6 4 9 6 2 10 5 7 10 14 15 15
7 7 8 10 11 12 11 10 10 12 12 15 16 10 3 11 10 9 5 2 6 3 8 3 2 4 1 4 11 6 3 6 6 4 3 5 6 10 6 6 8 10 11 12 13
11 8 9 10 12 12 10 10 11 6 12 11 16 8 4 6 9 13 8 4 7 6 4 8 6 6 3 3 10 5 1 6 8 3 3 3 12 13 5 10 10 10 11 12 13
8 8 10 12 12 11 10 9 8 6 12 12 11 10 3 8 7 11 14 10 7 5 1 3 5 5 6 6 4 5 6 6 6 4 2 8 9 12 5 7 11 10 10 11 11
9 9 11 14 12 10 8 7 7 4 6 8 4 5 8 8 7 8 9 11 7 6 2 0 4 8 9 10 7 4 1 3 4 6 2 6 11 4 5 7 10 11 11 11 12
9 9 13 11 11 8 5 3 4 4 5 4 11 1 7 7 7 8 8 10 11 12 9 6 6 12 19 17 6 16 8 5 6 7 5 11 12 9 7 5 8 9 9 10 12
7 9 6 9 8 6 7 7 3 2 4 3 11 3 3 2 6 11 4 11 12 15 16 8 13 16 15 9 12 10 11 15 5 2 4 7 12 13 12 10 11 11 11 11 12
4 5 7 7 6 3 7 9 4 2 3 4 3 4 1 3 6 16 9 7 11 15 15 14 2 7 15 15 12 12 16 11 2 5 2 7 15 16 14 14 13 12 13 14 16
4 7 7 8 5 2 4 2 2 4 3 2 8 5 4 4 4 4 7 7 4 14 11 10 5 8 12 15 15 13 4 7 5 2 9 3 8 14 14 12 11 13 15 18 19
4 9 7 6 4 4 4 4 3 2 6 9 7 1 3 5 12 6 1 2 11 8 5 5 7 9 11 12 12 6 9 10 5 4 5 8 7 10 14 12 12 16 15 15 11
8 10 10 3 2 5 5 6 5 5 6 3 4 6 9 3 5 8 6 4 6 7 2 4 4 2 2 5 6 14 15 9 4 2 6 11 9 7 12 11 15 6 4 4 3
13 11 4 5 3 3 2 4 3 3 1 3 2 6 8 6 9 19 17 14 10 9 11 7 5 4 8 12 11 8 13 4 4 5 7 5 9 12 6 8 8 8 1 3 5
14 15 10 7 5 3 1 2 3 2 3 2 2 6 5 4 3 15 18 13 4 4 13 12 7 11 9 9 9 14 13 4 6 7 3 2 8 4 3 7 7 4 6 7 6
14 7 4 9 7 2 3 2 4 3 4 4 1 2 3 3 4 5 12 15 9 6 6 9 7 10 13 4 13 9 9 2 4 2 1 7 7 11 12 11 6 6 4 6 3
6 6 4 11 7 2 3 4 2 3 5 3 4 6 3 4 4 3 5 2 4 2 5 2 7 6 6 4 5 5 10 4 2 5 6 6 8 9 6 7 6 3 1 4 3
4 4 4 9 3 5 3 4 3 4 4 8 5 2 5 3 4 4 4 3 3 2 2 2 2 5 7 9 12 6 7 4 3 3 3 4 5 7 6 5 1 5 6 6 5
3 4 5 6 4 2 3 2 4 3 4 4 3 5 6 6 7 5 5 5 2 4 5 2 4 6 8 3 5 12 10 11 4 4 5 4 4 5 8 7 7 5 6 6 5
3 2 3 4 3 4 0 1 4 4 6 4 4 6 4 5 5 4 4 5 8 3 2 3 1 6 4 2 1 6 13 11 12 3 9 4 1 2 3 4 6 7 8 7 6
2 2 4 5 2 3 3 3 3 6 6 6 4 4 3 7 7 5 4 3 5 7 7 3 4 3 0 5 3 7 12 14 15 8 5 14 11 9 4 5 10 11 13 16 13
4 3 1 3 5 6 3 2 2 4 5 7 5 9 3 4 5 5 5 5 6 5 3 3 4 3 5 4 1 2 7 16 19 20 12 15 17 13 14 15 15 17 17 16 17
2 4 2 3 3 5 5 4 4 3 7 6 7 8 10 7 7 3 1 3 4 3 3 3 4 5 3 2 4 3 7 8 14 18 15 19 22 16 16 14 12 12 13 14 16
2 2 1 2 1 1 3 2 4 3 6 7 4 6 9 8 7 6 4 4 4 3 3 2 2 1 5 1 1 6 10 13 11 11 13 15 16 14 15 13 14 15 14 14 15
Wind_Direction
295 292 297 298 319 318 325 270 205 191 228 250 30 41 31 356 332 23 8 12 12 332 342 315 303 316 288 244 254 258 240 216 216 199 148 156 170 184 62 133 190 164 349 126 144
326 300 286 290 294 309 314 304 225 197 209 217 179 89 65 3 325 311 10 334 335 301 18 55 342 330 260 229 189 250 222 215 232 224 157 173 178 157 173 159 171 169 118 139 152
330 315 293 280 285 295 308 312 234 193 191 225 159 106 105 81 343 342 342 347 294 301 322 83 55 303 295 267 22 1 246 50 71 27 250 175 181 168 190 186 183 185 158 152 163
314 326 310 290 276 281 298 313 245 189 186 183 196 145 169 115 267 221 336 309 279 277 243 137 4 78 353 335 12 221 45 333 83 324 200 169 166 187 199 101 152 175 159 163 171
295 314 322 309 282 278 283 298 279 204 191 179 200 189 201 100 237 132 322 331 278 256 227 148 60 112 127 327 325 319 90 79 80 132 178 157 177 186 197 96 124 145 161 172 181
274 297 313 308 284 266 273 286 289 217 199 185 189 184 230 208 114 134 343 340 292 241 268 171 126 109 85 324 322 352 350 117 100 132 144 185 173 199 192 137 147 163 173 177 188
250 272 299 298 293 256 263 275 283 242 196 195 178 203 316 205 157 152 145 305 316 277 207 175 200 131 96 329 326 297 208 162 114 106 113 207 195 209 118 180 158 179 179 182 194
268 249 283 286 289 248 255 263 268 256 193 192 177 216 244 156 154 159 174 171 274 263 254 163 176 97 58 347 332 345 242 173 110 149 99 224 211 202 146 197 187 182 181 189 197
264 254 277 282 274 234 249 264 267 238 192 188 174 221 210 119 200 179 172 191 206 272 30 131 186 135 124 124 356 347 186 200 127 49 54 215 229 123 177 213 206 191 198 199 202
262 261 275 278 242 212 239 264 234 71 88 73 357 193 161 198 165 163 169 181 184 181 359 133 201 168 185 176 175 206 212 314 226 47 255 221 257 119 202 239 220 210 211 211 216
252 266 280 245 195 200 207 181 216 132 240 216 189 351 138 110 128 174 173 179 175 175 180 214 210 206 196 205 194 164 187 221 303 37 320 245 254 230 171 224 226 229 230 227 232
241 285 241 174 178 200 232 227 216 339 154 348 167 86 107 141 125 158 199 190 190 183 198 157 219 222 223 178 150 221 184 188 173 77 290 271 263 246 244 237 242 241 237 240 247
213 232 158 147 152 191 223 236 60 264 67 167 137 106 101 260 143 163 194 205 199 196 193 210 176 162 204 185 181 201 207 213 205 147 238 291 270 258 237 237 236 244 253 259 256
195 173 148 143 182 182 208 44 212 343 335 153 162 148 188 221 100 117 204 187 205 205 210 249 98 193 192 195 189 192 188 123 116 251 239 274 269 248 238 215 224 243 241 242 245
182 165 155 215 107 199 89 94 45 235 233 132 144 91 136 196 130 187 178 187 158 151 185 146 178 180 195 192 182 219 151 130 118 219 307 203 266 255 254 250 254 245 238 248 254
154 133 136 139 84 71 87 105 41 194 234 153 111 185 143 142 185 134 149 49 107 122 132 85 354 173 160 95 189 132 110 91 113 345 271 239 230 236 225 218 240 245 35 7 342
113 76 57 7 62 51 5 174 302 238 68 127 165 186 121 151 155 169 169 163 158 156 169 151 151 133 175 112 147 157 164 132 161 189 238 355 215 246 303 304 269 284 295 281 286
108 91 85 54 2 322 277 212 223 49 2 15 302 131 121 120 156 175 169 165 199 218 154 180 184 177 183 200 181 191 188 165 211 207 190 109 233 243 265 281 296 279 269 277 278
121 94 59 2 351 300 243 236 34 5 337 308 86 147 117 140 151 159 176 178 160 200 201 187 134 158 177 155 148 175 211 18 82 33 297 194 253 271 240 268 257 260 262 258 250
111 102 50 347 339 278 68 89 21 359 314 317 64 11 88 39 129 145 117 19 178 231 309 159 121 195 152 182 171 207 151 135 215 195 232 234 246 252 181 225 230 186 32 21 342
70 62 24 347 307 43 72 65 48 17 359 23 22 66 41 58 34 70 42 65 353 279 259 113 109 132 155 212 182 169 177 215 195 251 261 280 255 26 45 37 48 75 58 32 6
53 75 16 321 59 359 61 50 290 3 33 38 35 57 45 35 32 70 74 47 328 312 135 353 58 151 167 48 324 230 207 200 207 204 247 344 267 93 82 73 61 45 358 344 334
83 71 62 295 117 107 84 28 74 35 34 55 31 34 48 53 81 41 68 13 22 49 108 161 165 129 153 302 245 225 217 234 238 338 220 208 202 80 68 351 22 6 348 342 347
120 55 6 52 16 93 139 60 80 47 60 58 57 96 43 56 53 134 99 57 21 67 27 62 72 18 61 61 327 194 217 215 221 223 219 230 249 161 148 295 304 312 305 305 308
18 78 330 52 44 76 52 52 48 48 75 31 60 60 52 97 73 91 94 123 49 27 65 2 115 124 124 107 130 243 239 217 222 235 242 259 264 272 305 313 313 303 301 299 293
113 142 123 82 341 73 10 27 61 45 14 38 81 53 56 79 59 109 76 41 52 67 46 14 127 160 160 173 157 235 244 251 243 249 252 266 271 291 293 290 297 314 305 303 303
106 101 87 346 22 52 49 98 75 111 55 56 48 85 76 61 42 34 41 54 68 37 84 19 117 303 150 177 319 268 225 215 231 233 234 249 268 297 315 334 336 328 321 336 356